Данлап

США     36°45′55″N   119°05′52″W
темп.,
°C
ветер,
м/с
пор.,
м/с
влажн.,
%
обл.,
%
осадки,
мм/ч
давл.,
гПа
погр.,
м
19 апреля, пн
пн1923:00+10всв43380 0.0 102142
02:00+9всв442779 0.0 102048
05:00+9всв432261 0.0 102045
08:00+15всв121944 0.0 1019146
11:00+20зюз322218 0.0 10181339
14:00+22зюз43190 0.0 10161849
17:00+20зюз32225 0.0 10141680
20:00+12всв32434 0.0 101617
20 апреля, вт
вт2023:00+11всв434417 0.0 101644
02:00+11всв43450 0.0 101540
05:00+10всв43485 0.0 101541
08:00+16в1134100 0.0 1013218
11:00+19зюз4225100 0.0 10111187
14:00+20юз432158 0.0 10091568
17:00+19зюз43260 0.0 10081727
20:00+11в224872 0.0 100813
21 апреля, ср
ср2123:00+9в32480 0.0 100836
02:00+7в32431 0.0 100833
05:00+5в22495 0.0 101017
08:00+9зюз21474 0.0 1009378
11:00+13зюз42480 0.0 10101068
14:00+16зюз434213 0.0 10081603
17:00+14зюз324757 0.1 10081476
20:00+9св3482100 1.9 1010135
22 апреля, чт
чт2223:00+8всв337658 2.9 101042
02:00+6всв43667 0.0 101144
05:00+5всв44595 0.0 101249
08:00+12в12320 0.0 1012190
11:00+16зюз42330 0.0 10111460
14:00+19зюз43303 0.0 10102031
17:00+18зюз32325 0.0 10101817
20:00+10всв22540 0.0 101212
23 апреля, пт
пт2323:00+9всв33600 0.0 101345
02:00+9всв43611 0.0 101345
05:00+8всв33635 0.0 101341
08:00+14юв01415 0.0 1013381
11:00+18зюз322846 0.0 10131371
14:00+20зюз42250 0.0 10121731
17:00+20зюз32270 0.0 10111593
20:00+12всв21470 0.0 101312